map of AFL home
AFL - Airport
Location
City:  Alta Floresta, Mato Grosso, Brazil
Name:Piloto Oswaldo Marques Dias Airport
ICAO:SBAT
IATA:AFL

Details
Type:Airport (Aerodrome, Airfield)
Use:Public/Civil
Latitude:951'58"S (-9.866091)
Longitude:5606'22"W (-56.106205)
Datum:WGS 1984
Elevation:947 ft (289 m)
Variation:17.74W (WMM2015 magnetic declination)
-0.13 annual change
Runways:1
Longest:8245 × 100 ft (2513 × 30.5 m), paved

Time
Time Zone:UTC-4 (DST-3)
Local Time:

Weather
METAR:SBAT 220000Z 00000KT 9999 FEW025TCU SCT090 24/23 Q1012
TAF:SBAT 212200Z 2200/2212 00000KT 9999 FEW010 TN22/2206Z TX26/2212Z
RMK PEH= TAF SBBE 212200Z 2200/2224 06005KT 9999 FEW020 TN24/2207Z TX30/2216Z
BECMG 2204/2206 12005KT
BECMG 2210/2212 09008KT BKN020
BECMG 2215/2217 36010KT BKN025 FEW030TCU PROB30
TEMPO 2218/2221 4000 TSRA BKN025 FEW030CB
BECMG 2221/2223 06005KT FEW020
RMK PEH

Related Locations
Nearby:
Farthest:TAG: 12447 mi / 20032 km
Tagbilaran, PH

Find:

   beyond  
but within

Other Information
Maps:
NOTAMs:
Links:
Sources:

  
flag of Brazil
flag of Mato Grosso
  

Sectional Chart

Flight Planning
at skyvector.com

Satellite Image

Google Maps Satellite view

 

Copyright © 2004-2017 Karl L. Swartz. All rights reserved.
The Great Circle Mapper name and logo are trademarks of the Great Circle Mapper.
All other trademarks mentioned herein belong to their respective owners.
Please see credits for attibutions and further copyright information.

  Follow gcmap on Facebook Follow gcmap on Twitter Follow gcmap on Google+ GCmap on LinkedIn

hCard Microformat

Geo Microformat